TimeCST,TemperatureF,Dew PointF,Humidity,Sea Level PressureIn,VisibilityMPH,Wind Direction,Wind SpeedMPH,Gust SpeedMPH,PrecipitationIn,Events,Conditions,WindDirDegrees,DateUTC
12:15 AM,19.2,14.5,82,30.25,10.0,WSW,3.5,-,N/A,,Clear,240,2013-12-26 06:15:00
12:35 AM,18.7,14.2,83,30.25,10.0,WSW,3.5,-,N/A,,Clear,240,2013-12-26 06:35:00
12:55 AM,19.4,14.9,83,30.24,10.0,Calm,Calm,-,N/A,,Clear,0,2013-12-26 06:55:00
1:15 AM,19.2,14.7,83,30.23,10.0,Calm,Calm,-,N/A,,Clear,0,2013-12-26 07:15:00
1:35 AM,18.3,14.4,85,30.24,10.0,Calm,Calm,-,N/A,,Clear,0,2013-12-26 07:35:00
1:55 AM,18.1,14.0,84,30.23,10.0,Calm,Calm,-,N/A,,Clear,0,2013-12-26 07:55:00
2:15 AM,17.2,12.7,83,30.22,10.0,Calm,Calm,-,N/A,,Clear,0,2013-12-26 08:15:00
2:35 AM,15.4,11.3,84,30.23,10.0,Calm,Calm,-,N/A,,Clear,0,2013-12-26 08:35:00
2:55 AM,16.7,13.5,87,30.22,10.0,South,4.6,-,N/A,,Clear,180,2013-12-26 08:55:00
3:15 AM,18.0,13.6,83,30.22,10.0,SSW,3.5,-,N/A,,Scattered Clouds,210,2013-12-26 09:15:00
3:35 AM,18.3,13.6,82,30.21,10.0,Calm,Calm,-,N/A,,Clear,0,2013-12-26 09:35:00
3:55 AM,18.5,13.6,81,30.22,10.0,SSW,3.5,-,N/A,,Scattered Clouds,210,2013-12-26 09:55:00
4:15 AM,16.9,11.7,80,30.21,10.0,SSW,3.5,-,N/A,,Clear,210,2013-12-26 10:15:00
4:35 AM,15.3,10.9,83,30.20,10.0,Calm,Calm,-,N/A,,Clear,0,2013-12-26 10:35:00
4:55 AM,15.8,11.7,84,30.20,10.0,SSW,3.5,-,N/A,,Clear,210,2013-12-26 10:55:00
5:15 AM,15.4,11.5,84,30.20,10.0,SSW,3.5,-,N/A,,Clear,200,2013-12-26 11:15:00
5:35 AM,16.0,12.2,85,30.19,10.0,SSW,4.6,-,N/A,,Clear,200,2013-12-26 11:35:00
5:55 AM,16.5,12.2,83,30.19,10.0,SSW,4.6,-,N/A,,Clear,200,2013-12-26 11:55:00
6:15 AM,16.2,12.4,85,30.19,10.0,SSW,4.6,-,N/A,,Clear,210,2013-12-26 12:15:00
6:35 AM,14.4,10.8,86,30.19,10.0,SSW,4.6,-,N/A,,Clear,200,2013-12-26 12:35:00
6:55 AM,15.8,12.7,88,30.19,10.0,SSW,5.8,-,N/A,,Clear,210,2013-12-26 12:55:00
7:15 AM,16.5,13.5,88,30.19,10.0,SSW,4.6,-,N/A,,Clear,200,2013-12-26 13:15:00
7:35 AM,17.1,14.0,88,30.18,10.0,Calm,Calm,-,N/A,,Clear,0,2013-12-26 13:35:00
7:55 AM,19.9,16.9,88,30.18,10.0,SSW,4.6,-,N/A,,Clear,200,2013-12-26 13:55:00
8:15 AM,21.0,16.7,83,30.18,10.0,SSW,3.5,-,N/A,,Clear,200,2013-12-26 14:15:00
8:35 AM,21.9,17.6,83,30.18,10.0,SSW,5.8,-,N/A,,Clear,200,2013-12-26 14:35:00
8:55 AM,24.3,19.0,80,30.17,10.0,SSW,4.6,-,N/A,,Clear,200,2013-12-26 14:55:00
9:15 AM,26.8,20.1,76,30.17,10.0,SSW,6.9,-,N/A,,Clear,210,2013-12-26 15:15:00
9:35 AM,28.9,20.8,72,30.17,10.0,SSW,10.4,-,N/A,,Clear,210,2013-12-26 15:35:00
9:55 AM,31.1,21.7,68,30.17,10.0,SSW,8.1,-,N/A,,Clear,210,2013-12-26 15:55:00
10:15 AM,32.2,22.6,68,30.16,10.0,SSW,11.5,-,N/A,,Clear,210,2013-12-26 16:15:00
10:35 AM,33.8,23.0,65,30.16,10.0,SW,9.2,-,N/A,,Clear,220,2013-12-26 16:35:00
10:55 AM,35.1,23.4,62,30.15,10.0,SW,11.5,16.1,N/A,,Clear,220,2013-12-26 16:55:00
11:15 AM,35.6,23.5,62,30.15,10.0,SW,11.5,-,N/A,,Clear,230,2013-12-26 17:15:00
11:35 AM,36.3,23.5,60,30.14,10.0,SW,11.5,18.4,N/A,,Clear,230,2013-12-26 17:35:00
11:55 AM,36.3,23.4,59,30.14,10.0,WSW,11.5,18.4,N/A,,Clear,240,2013-12-26 17:55:00
12:15 PM,36.7,23.9,60,30.13,10.0,SW,10.4,-,N/A,,Clear,230,2013-12-26 18:15:00
12:35 PM,36.9,24.1,60,30.12,10.0,WSW,8.1,-,N/A,,Clear,240,2013-12-26 18:35:00
12:55 PM,37.4,24.4,60,30.12,10.0,SW,5.8,-,N/A,,Clear,230,2013-12-26 18:55:00
1:15 PM,37.2,24.1,59,30.11,10.0,WSW,6.9,-,N/A,,Clear,240,2013-12-26 19:15:00
1:35 PM,37.4,24.3,59,30.11,10.0,WSW,8.1,-,N/A,,Clear,240,2013-12-26 19:35:00
1:55 PM,37.0,24.1,59,30.10,10.0,WSW,9.2,-,N/A,,Clear,250,2013-12-26 19:55:00
2:15 PM,36.9,23.4,58,30.11,10.0,West,9.2,17.3,N/A,,Clear,270,2013-12-26 20:15:00
2:35 PM,37.8,23.5,57,30.10,10.0,WSW,9.2,-,N/A,,Clear,250,2013-12-26 20:35:00
2:55 PM,37.4,23.7,58,30.11,10.0,WSW,9.2,-,N/A,,Clear,250,2013-12-26 20:55:00
3:15 PM,37.4,23.7,58,30.12,10.0,WSW,6.9,-,N/A,,Clear,250,2013-12-26 21:15:00
3:35 PM,37.4,23.7,58,30.12,10.0,WSW,8.1,-,N/A,,Clear,250,2013-12-26 21:35:00
3:55 PM,36.7,23.7,59,30.13,10.0,West,6.9,-,N/A,,Clear,260,2013-12-26 21:55:00
4:15 PM,35.6,23.9,62,30.13,10.0,WSW,6.9,-,N/A,,Clear,250,2013-12-26 22:15:00
4:35 PM,34.9,23.7,64,30.15,10.0,WSW,3.5,-,N/A,,Clear,240,2013-12-26 22:35:00
4:55 PM,33.1,23.4,67,30.15,10.0,WSW,5.8,-,N/A,,Clear,250,2013-12-26 22:55:00
5:15 PM,32.9,23.0,67,30.16,10.0,WSW,5.8,-,N/A,,Clear,250,2013-12-26 23:15:00
5:35 PM,32.0,22.8,69,30.16,10.0,WSW,3.5,-,N/A,,Clear,250,2013-12-26 23:35:00
5:55 PM,31.1,22.5,70,30.17,10.0,WSW,4.6,-,N/A,,Clear,250,2013-12-26 23:55:00
6:15 PM,30.9,22.6,71,30.17,10.0,West,5.8,-,N/A,,Clear,260,2013-12-27 00:15:00
6:35 PM,30.6,22.3,71,30.18,10.0,West,4.6,-,N/A,,Clear,270,2013-12-27 00:35:00
6:55 PM,30.0,22.3,73,30.19,10.0,West,4.6,-,N/A,,Clear,270,2013-12-27 00:55:00
7:15 PM,29.1,21.7,74,30.19,10.0,West,4.6,-,N/A,,Clear,270,2013-12-27 01:15:00
7:35 PM,29.3,22.1,75,30.19,10.0,West,4.6,-,N/A,,Clear,260,2013-12-27 01:35:00
7:55 PM,28.4,21.9,77,30.19,10.0,West,3.5,-,N/A,,Clear,260,2013-12-27 01:55:00
8:15 PM,27.5,21.2,77,30.20,10.0,West,3.5,-,N/A,,Clear,260,2013-12-27 02:15:00
8:35 PM,28.2,22.1,78,30.20,10.0,WSW,4.6,-,N/A,,Clear,250,2013-12-27 02:35:00
8:55 PM,27.5,21.7,79,30.20,10.0,SW,4.6,-,N/A,,Clear,230,2013-12-27 02:55:00
9:15 PM,26.6,21.0,79,30.20,10.0,WSW,5.8,-,N/A,,Clear,240,2013-12-27 03:15:00
9:35 PM,26.6,21.4,81,30.20,10.0,WSW,5.8,-,N/A,,Clear,240,2013-12-27 03:35:00
9:55 PM,27.3,21.9,80,30.21,10.0,West,5.8,-,N/A,,Clear,260,2013-12-27 03:55:00
10:15 PM,27.0,21.2,79,30.22,10.0,WSW,4.6,-,N/A,,Scattered Clouds,250,2013-12-27 04:15:00
10:35 PM,26.1,21.2,82,30.22,10.0,WSW,5.8,-,N/A,,Clear,240,2013-12-27 04:35:00
10:55 PM,25.7,21.2,83,30.22,10.0,WSW,5.8,-,N/A,,Clear,240,2013-12-27 04:55:00
11:15 PM,26.1,21.4,82,30.23,10.0,WSW,4.6,-,N/A,,Clear,250,2013-12-27 05:15:00
11:35 PM,25.5,21.2,84,30.23,10.0,West,4.6,-,N/A,,Clear,260,2013-12-27 05:35:00
11:55 PM,25.7,21.2,83,30.23,10.0,West,6.9,-,N/A,,Clear,260,2013-12-27 05:55:00